sat.trackr.live / text

‹ back to catalog

STARLINK-34991

NORAD 65446 · 2025-194N

PAYLOAD ACTIVE UNKNOWN

§ Identity

Operator
Country
US
Launch date
2025-09-03
Launch site
AFWTR
Launch vehicle
Mass (kg)
RCS (m²)

Purposes: comms

External: N2YO · Heavens-Above · Gunter

§ Orbital elements

Epoch: 2026-05-25T03:26:18.432960Z

Period
95.64 min
Inclination
97.4484°
Eccentricity
0.0001888
Mean motion
15.05659000 rev/d
Perigee alt
548.2 km
Apogee alt
550.8 km
Semi-major
6,927.6 km
B*
2.8677e-4
RAAN
359.4005°
Arg perigee
69.5904°
Mean anomaly
290.5526°
Rev number
4,115

§ Raw data

STARLINK-349911 65446U 25194N   26145.14326890  .00004083  00000+0  28677-3 0  99942 65446  97.4484 359.4005 0001888  69.5904 290.5526 15.05659000 41158

JSON: /api/v1/satellites/65446 · /tle

For live sub-satellite position, see the globe view (requires WebGL).

§ Visibility from observer

Set your observer location to see the next 7 days of passes ≥ 10°. The values pass through the URL so the page stays shareable.

No JS? Fill the form by hand. The geolocation button needs JavaScript.